Location: *
(38.4303°S, 157.0822°W)
Time: 13:23:52
(UTC+00:00)

USA 59 Rocket - Pass Details

Date: 21 May 2024
Orbit: 383 x 1743 km, 63.3° (Epoch: 22 June)

Event Time Altitude Azimuth Distance (km) Brightness Sun altitude
Exits shadow 14:03:13 47° 179° (S) 2,196 2.6 -40.0°
Drops below altitude 10° 14:10:52 10° 151° (SSE) 4,054 4.5 -38.5°
Sets 14:14:09 0° 147° (SSE) 4,991 5.1 -37.8°
